| time (UTC) | temp C | wind direction | speed KPH | gust KPH | rain 1hr cm | rain 24hr cm | rain mn cm | humidity % | barometer mb |
| 20260506164036 | 16 | 149 | 3.2 | 3.2 | 0.00 | 0.00 | 0.00 | 62 | 1021.4 |
| 20260506163532 | 17 | 168 | 3.2 | 3.2 | 0.00 | 0.00 | 0.00 | 63 | 1021.7 |
| 20260506163028 | 16 | 163 | 3.2 | 3.2 | 0.00 | 0.00 | 0.00 | 59 | 1021.5 |
| 20260506162525 | 16 | 149 | 3.2 | 4.8 | 0.00 | 0.00 | 0.00 | 64 | 1021.7 |
| 20260506162022 | 16 | 190 | 6.4 | 6.4 | 0.00 | 0.00 | 0.00 | 65 | 1021.7 |
| 20260506161519 | 16 | 170 | 3.2 | 4.8 | 0.00 | 0.00 | 0.00 | 66 | 1021.8 |
| 20260506161016 | 16 | 177 | 1.6 | 1.6 | 0.00 | 0.00 | 0.00 | 65 | 1021.5 |
| 20260506160513 | 16 | 153 | 1.6 | 3.2 | 0.00 | 0.00 | 0.00 | 68 | 1021.8 |
| 20260506160011 | 16 | 169 | 1.6 | 3.2 | 0.00 | 0.00 | 0.00 | 67 | 1021.5 |
| 20260506155508 | 15 | 168 | 4.8 | 4.8 | 0.00 | 0.00 | 0.00 | 66 | 1021.7 |
| 20260506153640 | 15 | 90 | 1.6 | 1.6 | 0.00 | 0.00 | 0.00 | 73 | 1021.7 |
| 20260506153137 | 15 | 105 | 0.0 | 1.6 | 0.00 | 0.00 | 0.00 | 72 | 1021.8 |
| 20260506152634 | 15 | 89 | 1.6 | 3.2 | 0.00 | 0.00 | 0.00 | 73 | 1021.5 |
| 20260506152132 | 15 | 132 | 0.0 | 1.6 | 0.00 | 0.00 | 0.00 | 77 | 1021.8 |
| 20260506151631 | 15 | 111 | 0.0 | 1.6 | 0.00 | 0.00 | 0.00 | 76 | 1021.7 |
| 20260506151127 | 15 | 136 | 0.0 | 0.0 | 0.00 | 0.00 | 0.00 | 79 | 1021.5 |
| 20260506150624 | 14 | 108 | 1.6 | 1.6 | 0.00 | 0.00 | 0.00 | 77 | 1021.8 |
| 20260506150121 | 13 | 118 | 0.0 | 1.6 | 0.00 | 0.00 | 0.00 | 82 | 1021.5 |
| 20260506145618 | 13 | 107 | 1.6 | 1.6 | 0.00 | 0.00 | 0.00 | 81 | 1021.7 |
| 20260506145115 | 13 | 143 | 0.0 | 0.0 | 0.00 | 0.00 | 0.00 | 82 | 1021.7 |
| 20260506144612 | 12 | 145 | 0.0 | 0.0 | 0.00 | 0.00 | 0.00 | 84 | 1021.5 |
| 20260506144108 | 12 | 143 | 0.0 | 0.0 | 0.00 | 0.00 | 0.00 | 86 | 1021.7 |
| 20260506143606 | 11 | 154 | 0.0 | 0.0 | 0.00 | 0.00 | 0.00 | 90 | 1021.8 |
| 20260506143104 | 10 | 134 | 0.0 | 0.0 | 0.00 | 0.00 | 0.00 | 95 | 1021.9 |
| 20260506142602 | 10 | 142 | 0.0 | 0.0 | 0.00 | 0.00 | 0.00 | 95 | 1021.8 |
| 20260506142100 | 10 | 152 | 0.0 | 0.0 | 0.00 | 0.00 | 0.00 | 96 | 1021.7 |
| 20260506141557 | 9 | 160 | 0.0 | 0.0 | 0.00 | 0.00 | 0.00 | 98 | 1021.5 |
| 20260506141056 | 9 | 159 | 0.0 | 0.0 | 0.00 | 0.00 | 0.00 | 99 | 1021.7 |
| 20260506140553 | 8 | 150 | 0.0 | 0.0 | 0.00 | 0.00 | 0.00 | 99 | 1021.5 |
| 20260506140050 | 7 | 160 | 0.0 | 0.0 | 0.00 | 0.00 | 0.00 | 99 | 1021.5 |
| 20260506135547 | 7 | 167 | 0.0 | 0.0 | 0.00 | 0.00 | 0.00 | 99 | 1021.3 |
| 20260506135043 | 7 | 167 | 0.0 | 0.0 | 0.00 | 0.00 | 0.00 | 99 | 1021.4 |
| 20260506134539 | 7 | 167 | 0.0 | 0.0 | 0.00 | 0.00 | 0.00 | 99 | 1021.2 |
| 20260506134035 | 7 | 167 | 0.0 | 0.0 | 0.00 | 0.00 | 0.00 | 99 | 1021.2 |
| 20260506133533 | 6 | 167 | 0.0 | 0.0 | 0.00 | 0.00 | 0.00 | 99 | 1021.4 |
| 20260506133030 | 6 | 176 | 0.0 | 0.0 | 0.00 | 0.00 | 0.00 | 99 | 1021.5 |
| 20260506132527 | 6 | 176 | 0.0 | 0.0 | 0.00 | 0.00 | 0.00 | 99 | 1021.0 |
| 20260506132024 | 6 | 176 | 0.0 | 0.0 | 0.00 | 0.00 | 0.00 | 99 | 1020.9 |
| 20260506131521 | 6 | 177 | 0.0 | 0.0 | 0.00 | 0.00 | 0.00 | 99 | 1021.1 |
| 20260506131017 | 6 | 177 | 0.0 | 0.0 | 0.00 | 0.00 | 0.00 | 99 | 1020.8 |
| 20260506130514 | 6 | 166 | 0.0 | 0.0 | 0.00 | 0.00 | 0.00 | 99 | 1021.0 |
| 20260506130012 | 6 | 176 | 0.0 | 0.0 | 0.00 | 0.00 | 0.00 | 99 | 1020.9 |
| 20260506125510 | 6 | 177 | 0.0 | 0.0 | 0.00 | 0.00 | 0.00 | 99 | 1020.8 |
| 20260506125008 | 6 | 195 | 0.0 | 0.0 | 0.00 | 0.00 | 0.00 | 99 | 1020.6 |
| 20260506124505 | 6 | 189 | 0.0 | 0.0 | 0.00 | 0.00 | 0.00 | 99 | 1020.7 |
| 20260506124003 | 6 | 193 | 0.0 | 0.0 | 0.00 | 0.00 | 0.00 | 99 | 1020.6 |
| 20260506123501 | 6 | 196 | 0.0 | 0.0 | 0.00 | 0.00 | 0.00 | 99 | 1020.6 |
| 20260506122958 | 6 | 170 | 0.0 | 0.0 | 0.00 | 0.00 | 0.00 | 99 | 1020.5 |
| 20260506122455 | 6 | 170 | 0.0 | 0.0 | 0.00 | 0.00 | 0.00 | 99 | 1020.6 |
| 20260506121953 | 6 | 175 | 0.0 | 0.0 | 0.00 | 0.00 | 0.00 | 99 | 1020.4 |
| 20260506121450 | 6 | 164 | 0.0 | 0.0 | 0.00 | 0.00 | 0.00 | 99 | 1020.4 |
| 20260506120946 | 6 | 210 | 0.0 | 0.0 | 0.00 | 0.00 | 0.00 | 99 | 1020.6 |
| 20260506120444 | 6 | 196 | 0.0 | 0.0 | 0.00 | 0.00 | 0.00 | 99 | 1020.3 |
| 20260506115941 | 6 | 197 | 0.0 | 0.0 | 0.00 | 0.00 | 0.00 | 99 | 1020.6 |
| 20260506115439 | 6 | 195 | 0.0 | 0.0 | 0.00 | 0.00 | 0.00 | 99 | 1020.5 |
| 20260506114937 | 6 | 169 | 0.0 | 0.0 | 0.00 | 0.00 | 0.00 | 99 | 1020.5 |
| 20260506114434 | 6 | 169 | 0.0 | 0.0 | 0.00 | 0.00 | 0.00 | 99 | 1020.5 |
| 20260506113933 | 6 | 169 | 0.0 | 0.0 | 0.00 | 0.00 | 0.00 | 99 | 1020.5 |
| 20260506113431 | 6 | 169 | 0.0 | 0.0 | 0.00 | 0.00 | 0.00 | 99 | 1020.5 |
| 20260506112927 | 6 | 173 | 0.0 | 0.0 | 0.00 | 0.00 | 0.00 | 99 | 1020.6 |
| 20260506112425 | 6 | 164 | 0.0 | 0.0 | 0.00 | 0.00 | 0.00 | 99 | 1020.6 |
| 20260506111921 | 6 | 164 | 0.0 | 0.0 | 0.00 | 0.00 | 0.00 | 99 | 1020.4 |
| 20260506111420 | 6 | 192 | 0.0 | 0.0 | 0.00 | 0.00 | 0.00 | 99 | 1020.4 |
| 20260506110916 | 6 | 170 | 0.0 | 0.0 | 0.00 | 0.00 | 0.00 | 99 | 1020.2 |
| 20260506110414 | 6 | 193 | 0.0 | 0.0 | 0.00 | 0.00 | 0.00 | 99 | 1020.5 |
| 20260506105910 | 6 | 187 | 0.0 | 0.0 | 0.00 | 0.00 | 0.00 | 99 | 1020.2 |
| 20260506105407 | 6 | 177 | 0.0 | 0.0 | 0.00 | 0.00 | 0.00 | 99 | 1020.4 |
| 20260506104904 | 6 | 199 | 0.0 | 0.0 | 0.00 | 0.00 | 0.00 | 99 | 1020.4 |
| 20260506104402 | 6 | 178 | 0.0 | 0.0 | 0.00 | 0.00 | 0.00 | 99 | 1020.2 |
| 20260506103900 | 6 | 187 | 0.0 | 0.0 | 0.00 | 0.00 | 0.00 | 99 | 1020.1 |
| 20260506103357 | 6 | 210 | 0.0 | 0.0 | 0.00 | 0.00 | 0.00 | 99 | 1020.2 |
| 20260506102854 | 6 | 183 | 0.0 | 0.0 | 0.00 | 0.00 | 0.00 | 99 | 1019.9 |
| 20260506102352 | 6 | 189 | 0.0 | 0.0 | 0.00 | 0.00 | 0.00 | 99 | 1020.1 |
| 20260506101849 | 6 | 174 | 0.0 | 0.0 | 0.00 | 0.00 | 0.00 | 99 | 1019.9 |
| 20260506101345 | 6 | 179 | 0.0 | 0.0 | 0.00 | 0.00 | 0.00 | 99 | 1020.1 |
| 20260506100843 | 6 | 155 | 0.0 | 0.0 | 0.00 | 0.00 | 0.00 | 99 | 1020.0 |
| 20260506100341 | 6 | 168 | 0.0 | 0.0 | 0.00 | 0.00 | 0.00 | 99 | 1020.1 |
| 20260506095839 | 6 | 169 | 0.0 | 0.0 | 0.00 | 0.00 | 0.00 | 99 | 1020.0 |
| 20260506095336 | 7 | 172 | 0.0 | 0.0 | 0.00 | 0.00 | 0.00 | 99 | 1019.9 |
| 20260506094833 | 7 | 172 | 0.0 | 0.0 | 0.00 | 0.00 | 0.00 | 99 | 1019.7 |
| 20260506094332 | 6 | 173 | 0.0 | 0.0 | 0.00 | 0.00 | 0.00 | 99 | 1020.0 |
| 20260506093829 | 6 | 172 | 0.0 | 0.0 | 0.00 | 0.00 | 0.00 | 99 | 1019.7 |
| 20260506093326 | 6 | 177 | 0.0 | 0.0 | 0.00 | 0.00 | 0.00 | 99 | 1019.7 |
| 20260506092824 | 7 | 202 | 0.0 | 1.6 | 0.00 | 0.00 | 0.00 | 99 | 1020.0 |
| 20260506092322 | 7 | 192 | 0.0 | 0.0 | 0.00 | 0.00 | 0.00 | 99 | 1020.0 |
| 20260506091818 | 6 | 161 | 0.0 | 0.0 | 0.00 | 0.00 | 0.00 | 99 | 1019.9 |
| 20260506091316 | 7 | 167 | 0.0 | 0.0 | 0.00 | 0.00 | 0.00 | 99 | 1020.2 |
| 20260506090814 | 6 | 175 | 0.0 | 0.0 | 0.00 | 0.00 | 0.00 | 98 | 1020.1 |
| 20260506090311 | 6 | 172 | 0.0 | 0.0 | 0.00 | 0.00 | 0.00 | 98 | 1020.3 |
| 20260506085807 | 6 | 172 | 0.0 | 0.0 | 0.00 | 0.00 | 0.00 | 98 | 1020.0 |
| 20260506085305 | 7 | 174 | 0.0 | 0.0 | 0.00 | 0.00 | 0.00 | 98 | 1020.3 |
| 20260506084800 | 7 | 173 | 0.0 | 0.0 | 0.00 | 0.00 | 0.00 | 98 | 1020.0 |
| 20260506084256 | 7 | 169 | 0.0 | 0.0 | 0.00 | 0.00 | 0.00 | 98 | 1020.2 |
| 20260506083753 | 7 | 170 | 0.0 | 0.0 | 0.00 | 0.00 | 0.00 | 98 | 1020.2 |
| 20260506083251 | 7 | 163 | 0.0 | 0.0 | 0.00 | 0.00 | 0.00 | 98 | 1020.4 |
| 20260506082748 | 7 | 163 | 0.0 | 0.0 | 0.00 | 0.00 | 0.00 | 98 | 1020.2 |
| 20260506082243 | 7 | 163 | 0.0 | 0.0 | 0.00 | 0.00 | 0.00 | 98 | 1020.4 |
| 20260506081742 | 7 | 192 | 0.0 | 0.0 | 0.00 | 0.00 | 0.00 | 98 | 1020.2 |
| 20260506081239 | 7 | 206 | 1.6 | 1.6 | 0.00 | 0.00 | 0.00 | 98 | 1020.2 |
| 20260506080737 | 7 | 220 | 1.6 | 1.6 | 0.00 | 0.00 | 0.00 | 98 | 1020.3 |
| 20260506080233 | 7 | 214 | 0.0 | 0.0 | 0.00 | 0.00 | 0.00 | 98 | 1020.2 |
| 20260506073217 | 7 | 185 | 0.0 | 0.0 | 0.00 | 0.00 | 0.00 | 98 | 1019.9 |
| 20260506072714 | 7 | 176 | 0.0 | 0.0 | 0.00 | 0.00 | 0.00 | 97 | 1019.7 |
| 20260506072212 | 7 | 182 | 0.0 | 0.0 | 0.00 | 0.00 | 0.00 | 97 | 1019.9 |
| 20260506071709 | 7 | 190 | 0.0 | 0.0 | 0.00 | 0.00 | 0.00 | 97 | 1019.7 |
| 20260506071207 | 7 | 206 | 0.0 | 1.6 | 0.00 | 0.00 | 0.00 | 97 | 1019.6 |
| 20260506070703 | 7 | 194 | 0.0 | 0.0 | 0.00 | 0.00 | 0.00 | 97 | 1019.5 |
| 20260506070201 | 7 | 195 | 0.0 | 0.0 | 0.00 | 0.00 | 0.00 | 97 | 1019.5 |
| 20260506062137 | 7 | 182 | 0.0 | 0.0 | 0.00 | 0.13 | 0.13 | 95 | 1019.2 |
| 20260506061633 | 7 | 182 | 0.0 | 0.0 | 0.00 | 0.13 | 0.13 | 95 | 1019.2 |
| 20260506061131 | 8 | 183 | 0.0 | 0.0 | 0.00 | 0.13 | 0.13 | 95 | 1019.1 |
| 20260506060629 | 8 | 186 | 0.0 | 1.6 | 0.00 | 0.13 | 0.13 | 95 | 1019.3 |
| 20260506060126 | 8 | 178 | 0.0 | 0.0 | 0.00 | 0.13 | 0.13 | 95 | 1019.0 |
| 20260506051058 | 8 | 212 | 1.6 | 1.6 | 0.00 | 0.13 | 0.13 | 96 | 1018.6 |
| 20260506050556 | 8 | 220 | 1.6 | 1.6 | 0.00 | 0.13 | 0.13 | 96 | 1018.7 |
| 20260506045046 | 8 | 211 | 0.0 | 1.6 | 0.00 | 0.13 | 0.13 | 95 | 1018.5 |
| 20260506044544 | 8 | 148 | 0.0 | 0.0 | 0.00 | 0.13 | 0.13 | 95 | 1018.6 |
| 20260506044041 | 8 | 178 | 0.0 | 0.0 | 0.00 | 0.13 | 0.13 | 95 | 1018.4 |
| 20260506043538 | 8 | 193 | 0.0 | 0.0 | 0.00 | 0.13 | 0.13 | 94 | 1018.4 |
| 20260506043036 | 8 | 192 | 0.0 | 0.0 | 0.00 | 0.13 | 0.13 | 94 | 1018.4 |
| 20260506042535 | 8 | 177 | 0.0 | 0.0 | 0.00 | 0.13 | 0.13 | 94 | 1018.2 |
| 20260506042033 | 8 | 175 | 0.0 | 0.0 | 0.00 | 0.13 | 0.13 | 95 | 1018.3 |
| 20260506041531 | 8 | 176 | 0.0 | 0.0 | 0.00 | 0.13 | 0.13 | 94 | 1018.0 |
| 20260506041027 | 8 | 177 | 0.0 | 0.0 | 0.00 | 0.13 | 0.13 | 93 | 1018.2 |
| 20260506040525 | 8 | 179 | 0.0 | 0.0 | 0.00 | 0.13 | 0.13 | 93 | 1018.0 |
| 20260506040021 | 8 | 179 | 0.0 | 0.0 | 0.00 | 0.13 | 0.13 | 92 | 1017.8 |
| 20260506035518 | 8 | 176 | 0.0 | 0.0 | 0.00 | 0.13 | 0.13 | 92 | 1017.9 |
| 20260506035015 | 9 | 176 | 1.6 | 1.6 | 0.00 | 0.13 | 0.13 | 91 | 1017.7 |
| 20260506034513 | 9 | 166 | 0.0 | 0.0 | 0.00 | 0.13 | 0.13 | 90 | 1017.6 |
| 20260506034009 | 9 | 189 | 0.0 | 0.0 | 0.00 | 0.13 | 0.13 | 90 | 1017.7 |
| 20260506033507 | 9 | 196 | 0.0 | 1.6 | 0.00 | 0.13 | 0.13 | 90 | 1017.4 |
| 20260506033004 | 10 | 193 | 0.0 | 0.0 | 0.00 | 0.13 | 0.13 | 89 | 1017.7 |
| 20260506032501 | 9 | 209 | 1.6 | 1.6 | 0.00 | 0.13 | 0.13 | 90 | 1017.5 |
| 20260506031957 | 9 | 210 | 1.6 | 1.6 | 0.00 | 0.13 | 0.13 | 91 | 1017.5 |
| 20260506031455 | 9 | 177 | 1.6 | 1.6 | 0.00 | 0.13 | 0.13 | 90 | 1017.2 |
| 20260506030952 | 10 | 192 | 0.0 | 0.0 | 0.00 | 0.13 | 0.13 | 90 | 1017.5 |
| 20260506030450 | 10 | 210 | 1.6 | 1.6 | 0.00 | 0.13 | 0.13 | 89 | 1017.3 |
| 20260506025946 | 10 | 197 | 1.6 | 1.6 | 0.00 | 0.13 | 0.13 | 89 | 1017.3 |
| 20260506025443 | 10 | 167 | 0.0 | 0.0 | 0.00 | 0.13 | 0.13 | 88 | 1017.1 |
| 20260506024940 | 10 | 197 | 1.6 | 1.6 | 0.00 | 0.13 | 0.13 | 88 | 1017.1 |
| 20260506024437 | 10 | 215 | 1.6 | 1.6 | 0.00 | 0.13 | 0.13 | 87 | 1016.9 |
| 20260506023932 | 11 | 199 | 0.0 | 1.6 | 0.00 | 0.13 | 0.13 | 85 | 1016.9 |
| 20260506023430 | 11 | 193 | 0.0 | 1.6 | 0.00 | 0.13 | 0.13 | 85 | 1016.7 |
| 20260506022926 | 11 | 177 | 1.6 | 1.6 | 0.00 | 0.13 | 0.13 | 84 | 1016.9 |
| 20260506022424 | 12 | 186 | 0.0 | 0.0 | 0.00 | 0.13 | 0.13 | 81 | 1016.7 |
| 20260506021922 | 12 | 186 | 0.0 | 0.0 | 0.00 | 0.13 | 0.13 | 82 | 1016.6 |
| 20260506021419 | 12 | 177 | 0.0 | 0.0 | 0.00 | 0.13 | 0.13 | 83 | 1016.9 |
| 20260506020916 | 13 | 184 | 0.0 | 0.0 | 0.00 | 0.13 | 0.13 | 82 | 1016.7 |
| 20260506020414 | 13 | 172 | 0.0 | 0.0 | 0.00 | 0.13 | 0.13 | 76 | 1016.7 |
| 20260506015910 | 13 | 172 | 0.0 | 0.0 | 0.00 | 0.13 | 0.13 | 76 | 1016.7 |
| 20260506015408 | 13 | 172 | 0.0 | 0.0 | 0.00 | 0.13 | 0.13 | 76 | 1016.6 |
| 20260506014905 | 13 | 172 | 0.0 | 0.0 | 0.00 | 0.13 | 0.13 | 75 | 1016.8 |
| 20260506014402 | 13 | 172 | 0.0 | 0.0 | 0.00 | 0.13 | 0.13 | 74 | 1016.6 |
| 20260506013858 | 13 | 131 | 0.0 | 1.6 | 0.00 | 0.13 | 0.13 | 73 | 1016.6 |
| 20260506013356 | 13 | 59 | 1.6 | 1.6 | 0.00 | 0.13 | 0.13 | 73 | 1016.6 |
| 20260506012852 | 13 | 336 | 0.0 | 0.0 | 0.00 | 0.13 | 0.13 | 72 | 1016.6 |
| 20260506012349 | 13 | 332 | 1.6 | 1.6 | 0.00 | 0.13 | 0.13 | 71 | 1016.9 |
| 20260506011846 | 14 | 306 | 0.0 | 0.0 | 0.00 | 0.13 | 0.13 | 73 | 1016.6 |
| 20260506011343 | 14 | 345 | 1.6 | 1.6 | 0.00 | 0.13 | 0.13 | 72 | 1016.7 |
| 20260506010840 | 14 | 45 | 1.6 | 1.6 | 0.00 | 0.13 | 0.13 | 72 | 1016.8 |
| 20260506010338 | 14 | 184 | 0.0 | 0.0 | 0.00 | 0.13 | 0.13 | 75 | 1016.7 |
| 20260506005835 | 14 | 202 | 1.6 | 1.6 | 0.00 | 0.13 | 0.13 | 73 | 1016.8 |
| 20260506005332 | 14 | 210 | 1.6 | 1.6 | 0.00 | 0.13 | 0.13 | 73 | 1016.7 |
| 20260506004827 | 14 | 179 | 1.6 | 3.2 | 0.00 | 0.13 | 0.13 | 73 | 1016.6 |
| 20260506004326 | 15 | 175 | 0.0 | 0.0 | 0.00 | 0.13 | 0.13 | 72 | 1016.7 |
| 20260506003821 | 15 | 199 | 0.0 | 1.6 | 0.00 | 0.13 | 0.13 | 70 | 1016.7 |
| 20260506003318 | 15 | 179 | 0.0 | 0.0 | 0.00 | 0.13 | 0.13 | 71 | 1016.6 |
| 20260506002814 | 15 | 104 | 0.0 | 0.0 | 0.00 | 0.13 | 0.13 | 70 | 1016.6 |
| 20260506002311 | 15 | 65 | 1.6 | 1.6 | 0.00 | 0.13 | 0.13 | 70 | 1016.6 |
| 20260506001806 | 15 | 117 | 0.0 | 0.0 | 0.00 | 0.13 | 0.13 | 69 | 1016.6 |
| 20260506001304 | 15 | 50 | 0.0 | 1.6 | 0.00 | 0.13 | 0.13 | 71 | 1016.6 |
| 20260506000801 | 15 | 91 | 0.0 | 0.0 | 0.00 | 0.13 | 0.13 | 70 | 1016.7 |
| 20260506000258 | 15 | 67 | 1.6 | 1.6 | 0.00 | 0.13 | 0.13 | 73 | 1016.8 |
| 20260505235755 | 15 | 145 | 0.0 | 0.0 | 0.00 | 0.13 | 0.13 | 73 | 1016.7 |
| 20260505235253 | 14 | 191 | 0.0 | 0.0 | 0.00 | 0.13 | 0.13 | 74 | 1016.7 |
| 20260505234749 | 14 | 195 | 3.2 | 3.2 | 0.00 | 0.13 | 0.13 | 75 | 1016.6 |
| 20260505234247 | 14 | 170 | 1.6 | 3.2 | 0.00 | 0.13 | 0.13 | 78 | 1016.8 |
| 20260505233743 | 14 | 161 | 1.6 | 3.2 | 0.00 | 0.13 | 0.13 | 77 | 1016.6 |
| 20260505233242 | 14 | 165 | 1.6 | 3.2 | 0.00 | 0.13 | 0.13 | 76 | 1016.8 |
| 20260505232738 | 13 | 169 | 0.0 | 1.6 | 0.00 | 0.13 | 0.13 | 79 | 1016.6 |
| 20260505232236 | 13 | 188 | 1.6 | 1.6 | 0.00 | 0.13 | 0.13 | 79 | 1016.8 |
| 20260505231732 | 14 | 182 | 6.4 | 9.7 | 0.00 | 0.13 | 0.13 | 78 | 1016.7 |
| 20260505231232 | 14 | 206 | 1.6 | 1.6 | 0.00 | 0.13 | 0.13 | 76 | 1016.5 |
| 20260505230729 | 14 | 169 | 1.6 | 1.6 | 0.00 | 0.13 | 0.13 | 72 | 1016.6 |
| 20260505230226 | 15 | 139 | 0.0 | 0.0 | 0.00 | 0.13 | 0.13 | 70 | 1016.7 |
| 20260505225722 | 14 | 218 | 1.6 | 1.6 | 0.00 | 0.13 | 0.13 | 68 | 1016.7 |
| 20260505225219 | 15 | 163 | 0.0 | 0.0 | 0.00 | 0.13 | 0.13 | 71 | 1016.6 |
| 20260505224715 | 15 | 177 | 0.0 | 0.0 | 0.00 | 0.13 | 0.13 | 66 | 1016.8 |
| 20260505224212 | 15 | 346 | 0.0 | 0.0 | 0.00 | 0.13 | 0.13 | 67 | 1016.6 |
| 20260505223710 | 15 | 347 | 0.0 | 0.0 | 0.00 | 0.13 | 0.13 | 68 | 1016.7 |
| 20260505223206 | 14 | 347 | 0.0 | 0.0 | 0.00 | 0.13 | 0.13 | 66 | 1016.8 |
| 20260505222702 | 15 | 347 | 0.0 | 0.0 | 0.00 | 0.13 | 0.13 | 66 | 1016.7 |
| 20260505222158 | 15 | 347 | 0.0 | 1.6 | 0.00 | 0.13 | 0.13 | 65 | 1016.7 |
| 20260505221656 | 15 | 353 | 1.6 | 1.6 | 0.00 | 0.13 | 0.13 | 65 | 1016.5 |
| 20260505221152 | 14 | 327 | 0.0 | 0.0 | 0.00 | 0.13 | 0.13 | 67 | 1016.5 |
| 20260505220649 | 14 | 162 | 0.0 | 0.0 | 0.00 | 0.13 | 0.13 | 66 | 1016.7 |
| 20260505220147 | 14 | 43 | 0.0 | 1.6 | 0.00 | 0.13 | 0.13 | 66 | 1016.7 |
| 20260505215644 | 14 | 47 | 1.6 | 1.6 | 0.00 | 0.13 | 0.13 | 66 | 1016.9 |
| 20260505215142 | 14 | 81 | 0.0 | 1.6 | 0.00 | 0.13 | 0.13 | 67 | 1016.7 |
| 20260505214640 | 14 | 329 | 1.6 | 1.6 | 0.00 | 0.13 | 0.13 | 68 | 1016.6 |
| 20260505214137 | 14 | 64 | 1.6 | 1.6 | 0.00 | 0.13 | 0.13 | 68 | 1016.8 |
| 20260505213635 | 14 | 111 | 0.0 | 0.0 | 0.00 | 0.13 | 0.13 | 69 | 1016.9 |
| 20260505213131 | 14 | 54 | 0.0 | 1.6 | 0.00 | 0.13 | 0.13 | 71 | 1016.7 |
| 20260505212627 | 14 | 42 | 3.2 | 3.2 | 0.00 | 0.13 | 0.13 | 70 | 1017.1 |
| 20260505212125 | 15 | 188 | 0.0 | 0.0 | 0.00 | 0.13 | 0.13 | 70 | 1016.9 |
| 20260505211621 | 15 | 178 | 0.0 | 0.0 | 0.00 | 0.13 | 0.13 | 68 | 1016.8 |
| 20260505211119 | 15 | 292 | 0.0 | 1.6 | 0.00 | 0.13 | 0.13 | 68 | 1016.8 |
| 20260505210615 | 14 | 196 | 0.0 | 0.0 | 0.00 | 0.13 | 0.13 | 68 | 1016.6 |
| 20260505210112 | 14 | 175 | 0.0 | 0.0 | 0.00 | 0.13 | 0.13 | 72 | 1016.7 |
| 20260505205610 | 14 | 338 | 1.6 | 1.6 | 0.00 | 0.13 | 0.13 | 69 | 1016.5 |
| 20260505205107 | 13 | 179 | 0.0 | 0.0 | 0.00 | 0.13 | 0.13 | 72 | 1016.8 |
| 20260505204604 | 13 | 104 | 1.6 | 1.6 | 0.00 | 0.13 | 0.13 | 76 | 1016.5 |
| 20260505204102 | 13 | 119 | 0.0 | 0.0 | 0.00 | 0.13 | 0.13 | 76 | 1016.7 |
| 20260505203558 | 13 | 83 | 0.0 | 0.0 | 0.00 | 0.13 | 0.13 | 76 | 1016.6 |
| 20260505203055 | 13 | 46 | 1.6 | 1.6 | 0.00 | 0.13 | 0.13 | 76 | 1016.5 |
| 20260505202551 | 13 | 64 | 0.0 | 1.6 | 0.00 | 0.13 | 0.13 | 77 | 1016.5 |
| 20260505202047 | 13 | 332 | 3.2 | 3.2 | 0.00 | 0.13 | 0.13 | 74 | 1016.6 |
| 20260505201544 | 13 | 18 | 1.6 | 1.6 | 0.00 | 0.13 | 0.13 | 72 | 1016.7 |
| 20260505201042 | 13 | 202 | 0.0 | 1.6 | 0.00 | 0.13 | 0.13 | 73 | 1016.6 |
| 20260505200539 | 13 | 138 | 0.0 | 0.0 | 0.00 | 0.13 | 0.13 | 75 | 1016.5 |
| 20260505200036 | 13 | 347 | 1.6 | 3.2 | 0.00 | 0.13 | 0.13 | 75 | 1016.2 |
| 20260505195532 | 13 | 348 | 0.0 | 0.0 | 0.00 | 0.13 | 0.13 | 76 | 1016.6 |
| 20260505195030 | 13 | 144 | 0.0 | 0.0 | 0.00 | 0.13 | 0.13 | 76 | 1016.8 |
| 20260505194527 | 13 | 211 | 0.0 | 0.0 | 0.00 | 0.13 | 0.13 | 76 | 1016.7 |
| 20260505194022 | 13 | 229 | 0.0 | 1.6 | 0.00 | 0.13 | 0.13 | 77 | 1016.8 |
| 20260505193520 | 13 | 221 | 0.0 | 1.6 | 0.00 | 0.13 | 0.13 | 77 | 1016.8 |
| 20260505193017 | 13 | 296 | 0.0 | 0.0 | 0.00 | 0.13 | 0.13 | 77 | 1016.6 |
| 20260505192516 | 13 | 296 | 0.0 | 0.0 | 0.00 | 0.13 | 0.13 | 77 | 1016.6 |
| 20260505192013 | 14 | 266 | 0.0 | 0.0 | 0.00 | 0.13 | 0.13 | 75 | 1016.5 |
| 20260505191511 | 14 | 293 | 0.0 | 0.0 | 0.00 | 0.13 | 0.13 | 77 | 1016.9 |
| 20260505191009 | 14 | 280 | 0.0 | 0.0 | 0.00 | 0.13 | 0.13 | 77 | 1016.6 |
| 20260505190503 | 14 | 234 | 1.6 | 1.6 | 0.00 | 0.13 | 0.13 | 78 | 1016.7 |
| 20260505185958 | 14 | 290 | 0.0 | 1.6 | 0.00 | 0.13 | 0.13 | 77 | 1016.5 |
| 20260505185456 | 14 | 205 | 0.0 | 0.0 | 0.00 | 0.13 | 0.13 | 77 | 1016.3 |
| 20260505184952 | 14 | 197 | 0.0 | 0.0 | 0.00 | 0.13 | 0.13 | 79 | 1016.5 |
| 20260505184449 | 13 | 218 | 0.0 | 1.6 | 0.00 | 0.13 | 0.13 | 78 | 1016.6 |
| 20260505183945 | 14 | 209 | 0.0 | 1.6 | 0.00 | 0.13 | 0.13 | 79 | 1016.5 |
| 20260505183443 | 15 | 218 | 0.0 | 0.0 | 0.00 | 0.13 | 0.13 | 78 | 1016.6 |
| 20260505182939 | 15 | 223 | 3.2 | 4.8 | 0.00 | 0.13 | 0.13 | 76 | 1016.5 |
| 20260505182436 | 15 | 262 | 0.0 | 0.0 | 0.00 | 0.13 | 0.13 | 74 | 1016.5 |
| 20260505181932 | 15 | 273 | 0.0 | 0.0 | 0.00 | 0.13 | 0.13 | 78 | 1016.5 |
| 20260505181430 | 15 | 317 | 1.6 | 3.2 | 0.00 | 0.13 | 0.13 | 74 | 1016.2 |
| 20260505180927 | 15 | 327 | 1.6 | 1.6 | 0.00 | 0.13 | 0.13 | 79 | 1016.1 |
| 20260505180423 | 15 | 194 | 0.0 | 0.0 | 0.00 | 0.13 | 0.13 | 77 | 1016.2 |
| 20260505175920 | 14 | 2 | 1.6 | 1.6 | 0.00 | 0.13 | 0.13 | 80 | 1016.1 |
| 20260505175416 | 13 | 339 | 3.2 | 3.2 | 0.00 | 0.13 | 0.13 | 81 | 1016.2 |
| 20260505174912 | 13 | 14 | 3.2 | 4.8 | 0.00 | 0.13 | 0.13 | 85 | 1016.1 |
| 20260505174410 | 12 | 155 | 0.0 | 0.0 | 0.00 | 0.13 | 0.13 | 86 | 1016.0 |
| 20260505173906 | 12 | 174 | 0.0 | 0.0 | 0.00 | 0.13 | 0.13 | 88 | 1016.0 |
| 20260505173402 | 12 | 188 | 3.2 | 3.2 | 0.00 | 0.13 | 0.13 | 88 | 1016.0 |
| 20260505172900 | 12 | 84 | 0.0 | 0.0 | 0.00 | 0.13 | 0.13 | 89 | 1015.8 |
| 20260505172358 | 12 | 8 | 3.2 | 4.8 | 0.00 | 0.13 | 0.13 | 89 | 1015.9 |
| 20260505171857 | 12 | 344 | 1.6 | 1.6 | 0.00 | 0.13 | 0.13 | 89 | 1015.9 |
| 20260505171354 | 12 | 331 | 1.6 | 1.6 | 0.00 | 0.13 | 0.13 | 88 | 1015.8 |
| 20260505170850 | 12 | 193 | 0.0 | 1.6 | 0.00 | 0.13 | 0.13 | 89 | 1015.9 |
| 20260505170348 | 12 | 27 | 3.2 | 3.2 | 0.00 | 0.13 | 0.13 | 89 | 1015.9 |
| 20260505165842 | 12 | 40 | 4.8 | 4.8 | 0.00 | 0.13 | 0.13 | 90 | 1015.8 |
| 20260505165339 | 12 | 196 | 0.0 | 0.0 | 0.00 | 0.13 | 0.13 | 92 | 1015.7 |
| 20260505164835 | 12 | 151 | 0.0 | 0.0 | 0.00 | 0.13 | 0.13 | 92 | 1015.6 |